Location: Bannatyne
(13.0833°N, 59.5333°W)
Time: 08:39:42
(UTC+00:00)

Transit 4A - Visible Passes

Search period start: 18 January 2020 00:00
Search period end: 28 January 2020 00:00
Orbit: 871 x 973 km, 66.8° (Epoch: 17 January)

Date Brightness Start Highest point End Pass type
(mag) Time Alt. Az. Time Alt. Az. Time Alt. Az.
18 Jan 10.0 22:54:13 10° NW 22:59:05 28° WSW 23:04:04 10° SSW visible
19 Jan 10.9 23:04:55 10° WNW 23:08:19 16° WSW 23:11:47 10° SW visible
21 Jan 11.3 08:49:42 10° ESE 08:51:05 11° ESE 08:52:27 10° E visible
22 Jan 10.6 08:55:59 10° SSE 09:00:19 20° ESE 09:04:34 10° ENE visible
23 Jan 9.7 09:04:03 10° S 09:09:34 33° ESE 09:14:56 10° NE visible
24 Jan 8.6 09:12:44 10° S 09:18:49 57° ESE 09:24:43 10° NNE visible
25 Jan 7.8 09:21:52 10° SSW 09:28:05 86° WNW 09:34:08 10° NNE visible
26 Jan 10.7 07:48:30 10° SE 07:51:25 14° ESE 07:54:17 10° ENE visible
26 Jan 8.0 09:31:24 10° SW 09:37:22 51° WNW 09:43:13 10° N visible
27 Jan 10.0 07:55:49 10° SSE 08:00:39 24° ESE 08:05:22 10° NE visible
27 Jan 8.6 09:41:24 10° SW 09:46:43 30° WNW 09:51:56 10° N visible
